Regional Weather Roundup
Issued by NWS Newport/Morehead, NC

Current Version | Previous Version | Text Only | Print | Product List | Glossary Off
Versions: 1 2 3 4 5 6 7 8 9 10 11 12 13 14 15 16 17 18 19 20 21 22 23 24 25 26 27 28 29 30 31 32 33 34 35 36 37 38 39 40 41 42 43 44 45 46 47 48 49 50
000 ASUS42 KMHX 220122 RWRMHX WEATHER ROUNDUP FOR EASTERN NORTH CAROLINA NATIONAL WEATHER SERVICE NEWPORT/MOREHEAD CITY NC 800 PM EST SUN DEC 21 2014 NOTE: "FAIR" INDICATES FEW OR NO CLOUDS BELOW 12,000 FEET WITH NO SIGNIFICANT WEATHER AND/OR OBSTRUCTIONS TO VISIBILITY NCZ015>017-031-032-045>047-102-103-220200- NORTH COAST CITY SKY/WX TMP DP RH WIND PRES REMARKS EDENTON N/A 38 33 82 NE7 30.28F ELIZABETH CITY CLEAR 41 33 73 N8 30.29F KITTY HAWK CLEAR 44 39 81 NE8 30.26F MANTEO PTCLDY 44 39 83 NE13 30.26F $$ NCZ045>047-081-094-103-104-220200- CENTRAL COAST CITY SKY/WX TMP DP RH WIND PRES REMARKS FRISCO CLOUDY 47 44 90 NE10G20 30.23F SWANQUARTER N/A 43 N/A N/A NE10G18 30.21S $$ NCZ095-097-098-100-101-220200- SOUTHERN COAST CITY SKY/WX TMP DP RH WIND PRES REMARKS BEAUFORT CLOUDY 45 40 82 NE12 30.21F CEDAR ISLAND N/A 46 N/A N/A N17G24 30.27S JACKSONVILLE LGT RAIN 46 37 71 NE8 30.23S PINEY ISLAND CLOUDY 48 39 71 NE16G24 30.23S WILMINGTON CLOUDY 46 38 73 NE9 30.20F $$ NCZ011>013-027>030-043-044-078>080-089-090>093-098-220200- COASTAL PLAIN CITY SKY/WX TMP DP RH WIND PRES REMARKS AHOSKIE CLEAR 37 31 81 CALM 30.29F CLINTON CLOUDY 46 37 70 NE5 30.24S ELIZABETHTOWN CLOUDY 46 36 69 E5 30.22S GOLDSBORO CLOUDY 46 40 81 NE9 30.23S GREENVILLE CLOUDY 43 36 75 E9 30.26F HAVELOCK CLOUDY 46 38 73 NE14 30.23F KENANSVILLE CLOUDY 45 35 68 CALM 30.25R KINSTON CLOUDY 46 36 66 NE9 30.25 NEW BERN CLOUDY 46 37 71 NE10 30.25F RICHLANDS CLOUDY 45 36 70 NE10G16 30.24R ROCKY MOUNT MOCLDY 43 32 65 NE3 30.26F WASHINGTON CLOUDY 41 35 78 NE8 30.26F WHITEVILLE DRIZZLE 47 39 75 NE5 30.21R $$ AMZ130-135-150-152-154-156-158-170-250-252-270-ANZ085-086-088-633-658-670-220200- MARINE OBSERVATIONS STATION/POSITION TIME TEMP WIND PRES WAVE SWELL AIR SEA DIR/SP/G HT/PER HT/PER (UTC) (F) (DEG/KT/KT) (MB) (FT/S) (FT/S) CHESAPEAKE LIGHT 0100 42 60/ 13/ 15 1026.7 64 E VA BEACH 0100 48 54 40/ 14/ 17 1025.4 3/ 4 2/ 9 DUCK 0100 45 46 40/ 15/ 17 1024.5 2 E DUCK 0100 46 N/A 3/ 4 10 NE DUCK 0100 51 N/A 3/10 OREGON INLET 0100 46 48 20/ 13/ 16 1024.3 13E OREGON INLT 0100 53 N/A 4/ 5 HATTERAS CG 0100 47 49 30/ 12/ 16 1023.5 DIAMOND BUOY 0100 56 1022.6 4/ 5 17 S OCRACOKE NOT AVBL CAPE LOOKOUT 0100 47 20/ 19/ 22 1022.3 BEAUFORT LAB 0100 45 51 20/ 12/ 16 1022.0 30 SE NEW RIVER 0100 52 60 40/ 23/ 27 1021.6 6/ 6 5 SE WRIGHTSVLE NOT AVBL 225 S CAPE HAT 0025 70 71 80/ 17/ 19 1018.9 6/ 6 2/10 41 SE CHARLESTON 0100 64 69 30/ 19/ 23 1018.6 7/ 7 2/14 $$

USA.gov is the U.S. government's official web portal to all federal, state and local government web resources and services.